Regional Weather Roundup
Issued by NWS Charleston, SC

Home | Current Version | Previous Version | Text Only | Print | Product List | Glossary On
Versions: 1 2 3 4 5 6 7 8 9 10 11 12 13 14 15 16 17 18 19 20 21 22 23 24 25 26 27 28 29 30 31 32 33 34 35 36 37 38 39 40 41 42 43 44 45 46 47 48 49 50
000
ASUS42 KCHS 291026
RWRCHS

REGIONAL WEATHER ROUNDUP
NATIONAL WEATHER SERVICE CHARLESTON SC
600 AM EDT SUN MAR 29 2015

NOTE: "FAIR" INDICATES FEW OR NO CLOUDS BELOW 12,000 FEET WITH NO
SIGNIFICANT WEATHER AND/OR OBSTRUCTIONS TO VISIBILITY.

NOT ALL STATIONS ARE QUALITY CONTROLLED BY THE NATIONAL
WEATHER SERVICE. USE DATA WITH CAUTION...ESPECIALLY
DEWPOINT OBSERVATIONS.

SCZ027-030-031-034>040-042>050-291100-
...SOUTHEAST SOUTH CAROLINA...

CITY           SKY/WX    TMP DP  RH WIND       PRES   REMARKS
N CHARLESTON   CLEAR     36  24  62 NE8       30.34R WCI  30
WATERFRONT PRK   N/A     41 N/A N/A N20G25      N/A
MOUNT PLEASANT LGT RAIN  36  23  60 N6        30.35R WCI  31
PINOPOLIS        N/A     41  23  48 NE15      30.26R
MONCKS CORNER  FAIR      37  19  48 NE5       30.36R WCI  34
SUMMERVILLE    FAIR      36  27  69 NE3       30.36R
BEAUFORT MCAS  FAIR      40  27  59 NE13      30.32R WCI  32
BEAUFORT ARPT  FAIR      41  32  70 NE22      30.33R
HILTON HEAD IS NOT AVBL
WALTERBORO     SUNNY     36  19  51 NE7       30.36R WCI  30
ALLENDALE      FAIR      37  23  56 N3        30.35R

...SOUTHERN MIDLANDS AND PEE DEE...

CITY           SKY/WX    TMP DP  RH WIND       PRES   REMARKS
GEORGETOWN     NOT AVBL
KINGSTREE      NOT AVBL
ORANGEBURG     CLEAR     35  19  52 NE5       30.35R WCI  31
BARNWELL       FAIR      36  23  60 NE5       30.37R WCI  32
AIKEN          FAIR      32  18  55 NE5       30.38R WCI  27
MANNING        FLURRIES  32  18  55 N3        30.37R
COLUMBIA       CLEAR     36  15  42 E6        30.36R WCI  31
SUMTER         CLEAR     30  17  57 NE3       30.34R
FLORENCE       CLEAR     31  16  54 NE8       30.36R WCI  23
MYRTLE BEACH   CLEAR     34  19  55 N12       30.37R WCI  25
N MYRTLE BEACH CLEAR     33  18  53 N6        30.35R WCI  28

$$

GAZ063-065-086>088-099>101-113>116-118-119-134>141-150-291100-
...SOUTHEAST GEORGIA...

CITY           SKY/WX    TMP DP  RH WIND       PRES   REMARKS
SAVANNAH ARPT  CLEAR     36  27  69 N3        30.32R
HUNTER AAF     CLEAR     39  30  68 N6        30.29R WCI  35
FORT STEWART   CLEAR     38  27  66 N6        30.30R WCI  33
STATESBORO     CLEAR     38  24  58 NE3       30.34R
SYLVANIA       SUNNY     37  26  64 NE5       30.35R WCI  33
CLAXTON        FAIR      37  27  65 N3        30.34R

...CSRA...CENTRAL AND FAR SOUTHEAST GEORGIA...

CITY           SKY/WX    TMP DP  RH WIND       PRES   REMARKS
THOMSON        CLEAR     30  30 100 CALM      30.40R
AUGUSTA-BUSH   CLEAR     32  22  66 CALM      30.36R
AUGUSTA-DANIEL CLEAR     38  16  40 NE7       30.35R WCI  33
SWAINSBORO     FAIR      37  14  38 NE5       30.35R WCI  34
VIDALIA        CLEAR     37  27  65 N5        30.34R WCI  34
EASTMAN        FAIR      31  31 100 CALM      30.37R
HAZLEHURST     FAIR      36  32  87 N3        30.33R
ALMA           CLEAR     38  26  62 N3        30.31R
WAYCROSS       CLEAR     41  32  70 N5        30.32R
JESUP          FAIR      41  32  70 N6        30.32R
BAXLEY         FAIR      37  30  75 N3        30.32R
BRUNSWICK      CLEAR     39  30  70 NW5       30.31R WCI  36
SAINT SIMONS   CLEAR     42  29  59 N8        30.29R

$$

SCZ027-028-034-036>038-045-046-048>050-GAZ119-141-291100-
...LAKE AND SUPPLEMENTAL COASTAL OBSERVATIONS...

STATION/POSITION TIME  TEMP    WIND        PRES    WAVE   SWELL
                       AIR SEA DIR/SP/G            HT/PER HT/PER/DIR
                 (UTC) (F)     (DEG/KT/KT) (MB)    (FT/S) (FT/S/D)
UPR LAKE MARION  NOT AVBL
WINYAH BAY       0945   37      20/  7     1026.0R
LAKE MURRAY      0900   36      50/  2/  7 1026.4R
ACE BASIN NERRS  NOT AVBL
FORT PULASKI     NOT AVBL
SAPELO ISLAND    1000   43     350/ 10     1025.0S

$$

ANZ835-935-AMZ111-154-330-350-352-354-370-450-454-472-291100-
...C-MAN AND BUOY OBSERVATIONS...

STATION/POSITION TIME  TEMP    WIND        PRES    WAVE   SWELL
                       AIR SEA DIR/SP/G            HT/PER HT/PER/DIR
                 (UTC) (F)     (DEG/KT/KT) (MB)    (FT/S) (FT/S/D)
BUOY 41004       0950   49 68   20/ 21/ 27 1024.7R   5/ 5   2/10
BUOY 41008       0950   52 60  360/ 14/ 17 1024.8R   3/ 4   2/ 90/ 9
FOLLY BEACH CMAN 1000   41      20/ 19/ 22 1027.0R
CAPERS NEARSHORE NOT AVBL
FRIPP NEARSHORE  0900   49      40/ 21/ 23 1023.9R


STATION/POSITION TIME  TEMP    WIND        PRES    WAVE   SWELL
                       AIR SEA DIR/SP/G            HT/PER HT/PER/DIR
                 (UTC) (F)     (DEG/KT/KT) (MB)    (FT/S) (FT/S/D)
5E ST. MARYS GA  0921      60                N/A     3/ 3
FRYING PAN BUOY  0950   45 64   20/ 19/ 23 1026.0R   6/ 6   2/120/ 9
BUOY 41025       NOT AVBL
CAPE LOOKOUT NC  1000   34     350/ 16/ 18 1026.1R
BUOY 41002       0950   54 68  340/ 17/ 21 1021.5R   9/ 8
BUOY 41010       0920   66 76  310/ 14/ 21 1021.7R
ST AUGUSTINE FL  1000   48 59  300/  6/  7 1025.7R


$$



USA.gov is the U.S. government's official web portal to all federal, state and local government web resources and services.